CDT,Max TemperatureF,Mean TemperatureF,Min TemperatureF,Max Dew PointF,MeanDew PointF,Min DewpointF,Max Humidity, Mean Humidity, Min Humidity, Max Sea Level PressureIn, Mean Sea Level PressureIn, Min Sea Level PressureIn, Max VisibilityMiles, Mean VisibilityMiles, Min VisibilityMiles, Max Wind SpeedMPH, Mean Wind SpeedMPH, Max Gust SpeedMPH,PrecipitationIn, CloudCover, Events, WindDirDegrees
2013-5-1,82,64,45,59,52,40,80,61,42,30.17,30.02,29.88,10,10,10,25,11,35,0.00,2,,134
2013-5-2,45,40,34,39,36,33,100,88,76,30.33,30.27,30.16,10,7,2,23,15,30,0.31,8,Rain-Snow-Thunderstorm,354
2013-5-3,37,35,33,35,33,32,100,96,92,30.23,30.04,29.84,10,5,2,22,14,29,0.78,8,Rain-Snow,349
2013-5-4,51,44,37,47,42,37,100,90,80,30.05,29.91,29.77,10,7,1,10,4,14,0.02,8,Rain,100
2013-5-5,68,56,43,55,50,44,100,84,67,30.08,30.03,30.00,10,6,0,17,9,25,T,5,Fog,4
2013-5-6,74,63,51,54,51,47,100,71,41,30.08,30.04,30.01,10,7,2,15,7,20,0.00,3,,349
2013-5-7,77,62,46,57,50,45,96,67,38,30.08,30.04,30.00,10,10,8,7,2,10,0.00,2,,337
2013-5-8,75,62,48,55,52,47,100,72,44,30.04,30.00,29.95,10,10,10,15,5,20,0.00,3,,179
2013-5-9,72,63,53,63,58,54,100,83,66,29.96,29.90,29.84,10,9,2,17,6,24,0.33,6,Rain-Thunderstorm,181
2013-5-10,58,50,41,56,49,39,100,89,77,30.06,29.99,29.87,10,7,0,17,8,23,T,5,Fog,339
2013-5-11,61,48,35,48,37,22,100,65,30,30.23,30.10,30.03,10,7,0,25,12,35,0.00,0,Fog,285
2013-5-12,61,47,32,35,28,23,85,56,27,30.29,30.23,30.17,10,10,10,15,6,21,0.00,0,,309
2013-5-13,73,53,33,47,40,31,92,61,29,30.20,30.11,29.95,10,10,10,18,8,23,0.00,0,,191
2013-5-14,88,72,55,60,54,48,80,55,29,29.94,29.82,29.74,10,10,10,21,11,29,0.00,0,,219
2013-5-15,83,75,66,65,59,54,81,64,47,29.89,29.85,29.81,10,10,10,16,8,24,0.00,1,Thunderstorm,246
2013-5-16,81,71,60,67,63,60,100,79,58,29.94,29.89,29.83,10,9,4,25,6,30,T,2,Rain,185
2013-5-17,76,65,54,62,59,54,100,82,64,29.98,29.94,29.90,10,10,9,12,4,16,0.00,4,,172
2013-5-18,83,70,56,66,62,57,100,79,58,29.99,29.94,29.83,10,5,0,17,8,39,0.00,1,Fog,130
2013-5-19,87,74,61,72,66,59,100,74,48,29.88,29.78,29.61,10,7,2,29,11,41,0.53,4,Rain-Thunderstorm,170
2013-5-20,78,69,59,66,62,57,97,79,60,29.81,29.72,29.63,10,8,2,16,11,31,0.44,4,Rain-Thunderstorm,197
2013-5-21,73,65,56,61,58,55,100,79,57,29.76,29.72,29.67,10,10,10,16,8,24,0.00,2,,218
2013-5-22,64,58,51,54,52,50,96,82,67,29.90,29.78,29.70,10,10,9,16,8,23,T,6,Rain,267
2013-5-23,68,58,47,54,51,47,100,78,56,30.27,30.09,29.91,10,9,2,17,8,23,0.00,6,,328
2013-5-24,68,57,45,49,45,42,93,68,42,30.43,30.33,30.24,10,10,7,20,9,25,T,1,,113
2013-5-25,66,58,50,59,50,41,100,78,55,30.30,30.22,30.14,10,8,2,28,12,32,0.81,7,Rain-Thunderstorm,116
2013-5-26,74,63,51,67,59,49,100,87,73,30.16,30.06,29.97,10,9,2,21,9,29,0.40,4,Rain-Thunderstorm,110
2013-5-27,76,67,57,65,61,57,100,82,64,29.99,29.91,29.70,10,6,0,45,7,56,1.70,6,Fog-Rain-Thunderstorm,89
2013-5-28,76,68,60,70,65,58,100,91,82,29.88,29.78,29.72,10,8,0,25,10,32,2.05,7,Fog-Rain-Thunderstorm,181
2013-5-29,83,72,60,70,64,60,93,79,65,29.94,29.85,29.74,10,8,0,23,12,31,0.31,4,Fog-Rain-Thunderstorm,166
2013-5-30,75,68,60,65,61,59,97,83,68,29.80,29.75,29.69,10,9,0,28,13,49,0.30,4,Fog-Rain-Thunderstorm,187
2013-5-31,75,67,59,68,63,57,100,90,79,29.85,29.76,29.70,10,8,1,33,10,39,0.52,5,Rain-Thunderstorm,170